Orange City, IA

10:01 PM CDT on August 23, 2016 (GMT -0500)
Orange City Municipal

Weather History for KORC - December, 2013

Change the Weather History Date:

Thursday, December 5, 2013

  Actual Average Record
Temperature  
Mean Temperature 2 °F -  
Max Temperature 10 °F 34 °F 51 °F (2012)
Min Temperature -5 °F 20 °F -5 °F (2002)
Degree Days  
Heating Degree Days 62    
Moisture  
Dew Point -3 °F    
Average Humidity 73    
Maximum Humidity 85    
Minimum Humidity 67    
Precipitation  
Precipitation 0.00 in - - ()
Sea Level Pressure  
Sea Level Pressure 30.19 in    
Wind  
Wind Speed 20 mph (WNW)    
Max Wind Speed 28 mph    
Max Gust Speed 33 mph    
Visibility 10 miles    
Events Snow    
Averages and records for this station are not official NWS values.
T = Trace of Precipitation, MM = Missing Value Source: NWS Daily Summary

Daily Weather History Graph

Daily Weather History Graph

Search for Another Location

Airport or City:

Trip Planner

Search our weather history database for the weather conditions in past years. The results will help you decide how hot, cold, wet, or windy it might be!

Date:

Astronomy

Dec. 05, 2013 Rise Set
Actual Time 7:40 AM CST 4:49 PM CST
Civil Twilight 7:08 AM CST 5:21 PM CST
Nautical Twilight 6:32 AM CST 5:57 PM CST
Astronomical Twilight 5:58 AM CST 6:31 PM CST
Moon 9:59 AM CST (12/5) 8:14 PM CST (12/5)
Length of Visible Light 10h 13m
Length of Day
9h 09m
Waxing Crescent, 11% of the Moon is Illuminated
Dec 5
Waxing Crescent
Dec 9
First Quarter
Dec 17
Full
Dec 25
Last Quarter
Jan 1
New

Hourly Weather History & Observations

Time (CST) Temp. Windchill Dew Point Humidity Pressure Visibility Wind Dir Wind Speed Gust Speed Precip Events Conditions
12:15 AM 10.4 °F -9.5 °F 5.0 °F 79% 29.93 in 7.0 mi WNW 23.0 mph 31.1 mph N/A   Overcast
12:35 AM 10.4 °F -9.9 °F 5.0 °F 79% 29.95 in 7.0 mi WNW 24.2 mph 32.2 mph N/A   Overcast
12:55 AM 10.4 °F -10.3 °F 3.2 °F 73% 29.94 in 5.0 mi WNW 25.3 mph 32.2 mph N/A Snow Light Snow
1:15 AM 8.6 °F -11.4 °F 3.2 °F 79% 29.96 in 7.0 mi WNW 21.9 mph 33.4 mph N/A   Overcast
1:35 AM 8.6 °F -11.0 °F 3.2 °F 79% 29.97 in 7.0 mi WNW 20.7 mph 26.5 mph N/A   Overcast
1:55 AM 8.6 °F -12.3 °F 1.4 °F 73% 29.98 in 10.0 mi WNW 24.2 mph 33.4 mph N/A   Overcast
2:15 AM 6.8 °F -15.9 °F 1.4 °F 79% 29.99 in 7.0 mi WNW 27.6 mph 32.2 mph N/A   Overcast
2:35 AM 6.8 °F -15.5 °F 1.4 °F 79% 30.01 in 5.0 mi WNW 26.5 mph - N/A   Haze
2:55 AM 6.8 °F -13.8 °F 1.4 °F 79% 30.03 in 5.0 mi WNW 21.9 mph - N/A   Haze
3:15 AM 6.8 °F -13.8 °F 1.4 °F 79% 30.04 in 5.0 mi WNW 21.9 mph 28.8 mph N/A   Haze
3:35 AM 6.8 °F -14.7 °F -0.4 °F 72% 30.05 in 7.0 mi WNW 24.2 mph 31.1 mph N/A   Overcast
3:55 AM 5.0 °F -17.5 °F -0.4 °F 78% 30.06 in 10.0 mi WNW 25.3 mph 28.8 mph N/A   Overcast
4:15 AM 5.0 °F -17.1 °F -0.4 °F 78% 30.06 in 10.0 mi WNW 24.2 mph 32.2 mph N/A   Overcast
4:35 AM 5.0 °F -17.1 °F -0.4 °F 78% 30.06 in 10.0 mi WNW 24.2 mph 29.9 mph N/A   Overcast
4:55 AM 3.2 °F -18.6 °F -0.4 °F 85% 30.07 in 10.0 mi WNW 21.9 mph 26.5 mph N/A   Overcast
5:15 AM 3.2 °F -17.6 °F -2.2 °F 78% 30.08 in 10.0 mi WNW 19.6 mph 27.6 mph N/A   Overcast
5:35 AM 3.2 °F -15.3 °F -2.2 °F 78% 30.10 in 10.0 mi WNW 15.0 mph - N/A   Overcast
5:55 AM 3.2 °F -13.9 °F -2.2 °F 78% 30.11 in 10.0 mi WNW 12.7 mph - N/A   Overcast
6:15 AM 3.2 °F -15.9 °F -2.2 °F 78% 30.12 in 10.0 mi WNW 16.1 mph - N/A   Overcast
6:35 AM 3.2 °F -15.9 °F -2.2 °F 78% 30.12 in 10.0 mi WNW 16.1 mph 21.9 mph N/A   Overcast
6:55 AM 3.2 °F -16.5 °F -4.0 °F 72% 30.13 in 10.0 mi WNW 17.3 mph - N/A   Overcast
7:15 AM 1.4 °F -18.2 °F -4.0 °F 78% 30.14 in 10.0 mi WNW 16.1 mph - N/A   Overcast
7:35 AM 1.4 °F -18.8 °F -4.0 °F 78% 30.14 in 10.0 mi WNW 17.3 mph - N/A   Overcast
7:55 AM 1.4 °F -19.9 °F -5.8 °F 72% 30.15 in 10.0 mi WNW 19.6 mph - N/A   Overcast
8:15 AM 1.4 °F -20.5 °F -5.8 °F 72% 30.16 in 10.0 mi WNW 20.7 mph 27.6 mph N/A   Overcast
8:35 AM 1.4 °F -21.4 °F -5.8 °F 72% 30.16 in 10.0 mi WNW 23.0 mph 29.9 mph N/A   Overcast
8:55 AM 3.2 °F -19.0 °F -4.0 °F 72% 30.17 in 10.0 mi NW 23.0 mph 29.9 mph N/A   Scattered Clouds
9:15 AM 3.2 °F -17.6 °F -4.0 °F 72% 30.18 in 10.0 mi NW 19.6 mph 28.8 mph N/A   Scattered Clouds
9:35 AM 3.2 °F -17.6 °F -2.2 °F 78% 30.18 in 10.0 mi NW 19.6 mph 29.9 mph N/A   Clear
9:55 AM 5.0 °F -17.1 °F -2.2 °F 72% 30.18 in 10.0 mi NW 24.2 mph 31.1 mph N/A   Clear
10:15 AM 5.0 °F -16.7 °F -2.2 °F 72% 30.19 in 10.0 mi NW 23.0 mph 32.2 mph N/A   Clear
10:35 AM 6.8 °F -13.8 °F -2.2 °F 67% 30.22 in 10.0 mi NW 21.9 mph 29.9 mph N/A   Clear
10:55 AM 6.8 °F -14.3 °F -2.2 °F 67% 30.23 in 10.0 mi WNW 23.0 mph 32.2 mph N/A   Clear
11:15 AM 6.8 °F -14.3 °F -2.2 °F 67% 30.23 in 10.0 mi WNW 23.0 mph 28.8 mph N/A   Clear
11:35 AM 6.8 °F -13.8 °F -0.4 °F 72% 30.23 in 10.0 mi NW 21.9 mph 29.9 mph N/A   Clear
11:55 AM 6.8 °F -13.4 °F -0.4 °F 72% 30.23 in 10.0 mi WNW 20.7 mph 25.3 mph N/A   Clear
12:15 PM 6.8 °F -13.8 °F -0.4 °F 72% 30.22 in 10.0 mi WNW 21.9 mph - N/A   Clear
12:35 PM 6.8 °F -12.9 °F -0.4 °F 72% 30.22 in 10.0 mi WNW 19.6 mph - N/A   Clear
12:55 PM 8.6 °F -10.5 °F -0.4 °F 67% 30.21 in 10.0 mi WNW 19.6 mph 25.3 mph N/A   Clear
1:15 PM 8.6 °F -11.4 °F -0.4 °F 67% 30.21 in 10.0 mi NW 21.9 mph 26.5 mph N/A   Clear
1:35 PM 8.6 °F -12.3 °F -0.4 °F 67% 30.19 in 10.0 mi WNW 24.2 mph 31.1 mph N/A   Clear
1:55 PM 8.6 °F -11.4 °F -0.4 °F 67% 30.20 in 10.0 mi NW 21.9 mph 28.8 mph N/A   Clear
2:15 PM 8.6 °F -10.5 °F -0.4 °F 67% 30.20 in 10.0 mi NW 19.6 mph 28.8 mph N/A   Clear
2:35 PM 8.6 °F -11.0 °F -0.4 °F 67% 30.20 in 10.0 mi NW 20.7 mph 26.5 mph N/A   Clear
2:55 PM 8.6 °F -10.0 °F -0.4 °F 67% 30.20 in 10.0 mi NW 18.4 mph 27.6 mph N/A   Clear
3:15 PM 6.8 °F -13.4 °F -2.2 °F 67% 30.21 in 10.0 mi NW 20.7 mph 27.6 mph N/A   Clear
3:35 PM 6.8 °F -12.9 °F -2.2 °F 67% 30.21 in 10.0 mi NW 19.6 mph 24.2 mph N/A   Clear
3:55 PM 6.8 °F -11.3 °F -2.2 °F 67% 30.23 in 10.0 mi WNW 16.1 mph 19.6 mph N/A   Clear
4:15 PM 6.8 °F -10.7 °F -2.2 °F 67% 30.24 in 10.0 mi NW 15.0 mph - N/A   Clear
4:35 PM 5.0 °F -11.6 °F -2.2 °F 72% 30.25 in 10.0 mi WNW 12.7 mph - N/A   Clear
4:55 PM 3.2 °F -12.2 °F -4.0 °F 72% 30.26 in 10.0 mi West 10.4 mph - N/A   Clear
5:15 PM 3.2 °F -13.9 °F -4.0 °F 72% 30.27 in 10.0 mi WNW 12.7 mph - N/A   Clear
5:35 PM 3.2 °F -13.9 °F -4.0 °F 72% 30.27 in 10.0 mi WNW 12.7 mph - N/A   Clear
5:55 PM 1.4 °F -15.3 °F -5.8 °F 72% 30.29 in 10.0 mi WNW 11.5 mph - N/A   Clear
6:15 PM 1.4 °F -14.5 °F -5.8 °F 72% 30.30 in 10.0 mi WNW 10.4 mph - N/A   Clear
6:35 PM -0.4 °F -15.7 °F -7.6 °F 72% 30.31 in 10.0 mi West 9.2 mph - N/A   Clear
6:55 PM -0.4 °F -14.7 °F -7.6 °F 72% 30.32 in 10.0 mi West 8.1 mph - N/A   Clear
7:15 PM -2.2 °F -18.0 °F -9.4 °F 71% 30.32 in 10.0 mi West 9.2 mph - N/A   Clear
7:35 PM -2.2 °F -15.6 °F -9.4 °F 71% 30.33 in 10.0 mi West 6.9 mph - N/A   Clear
7:55 PM -2.2 °F -18.0 °F -9.4 °F 71% 30.32 in 10.0 mi WNW 9.2 mph - N/A   Clear
8:15 PM -2.2 °F -18.0 °F -9.4 °F 71% 30.34 in 10.0 mi West 9.2 mph - N/A   Clear
8:35 PM -2.2 °F -18.9 °F -7.6 °F 78% 30.34 in 10.0 mi West 10.4 mph - N/A   Clear
8:55 PM -4.0 °F -20.2 °F -9.4 °F 78% 30.34 in 10.0 mi WNW 9.2 mph - N/A   Clear
9:15 PM -2.2 °F -18.9 °F -9.4 °F 71% 30.34 in 10.0 mi NW 10.4 mph - N/A   Clear
9:35 PM -2.2 °F -16.8 °F -9.4 °F 71% 30.35 in 10.0 mi WNW 8.1 mph - N/A   Clear
9:55 PM -2.2 °F -18.0 °F -7.6 °F 78% 30.35 in 10.0 mi West 9.2 mph - N/A   Clear
10:15 PM -2.2 °F -19.9 °F -9.4 °F 71% 30.36 in 10.0 mi West 11.5 mph - N/A   Clear
10:35 PM -2.2 °F -18.9 °F -9.4 °F 71% 30.36 in 10.0 mi WNW 10.4 mph - N/A   Clear
10:55 PM -4.0 °F -21.2 °F -9.4 °F 78% 30.36 in 10.0 mi WNW 10.4 mph - N/A   Clear
11:15 PM -5.8 °F -23.4 °F -11.2 °F 77% 30.37 in 10.0 mi WNW 10.4 mph - N/A   Clear
11:35 PM -4.0 °F -23.0 °F -9.4 °F 78% 30.37 in 10.0 mi WNW 12.7 mph - N/A   Clear
11:55 PM -2.2 °F -20.7 °F -9.4 °F 71% 30.37 in 10.0 mi WNW 12.7 mph - N/A   Clear